When you browse on this site, cookies collect data to enhance your experience and personalize the content and advertising you see.
Visit our Privacy Policy to learn more. By continuing to use the site, you agree to this use of cookies and data.
  • In Romania
  • List of Countries
  • For 7 days
  • Water Temperature
  • Satellite Maps
  • Weather Map
  • Weather Widgets
  • user-avatar
    Login

    Hourly Weather Ondjiwa

    Today, 22 March, Friday

    Time Temperature Precipitation Wind Pressure Humidity
    00:00 +27°C° 0 mm 2 mps 666 mmHg 37%
    01:00 +27°C° 0 mm 3 mps 666 mmHg 44%
    02:00 +27°C° 0.1 mm 2 mps 666 mmHg 47%
    03:00 +26°C° 0.1 mm 2 mps 666 mmHg 49%
    04:00 +26°C° 0.1 mm 2 mps 666 mmHg 52%
    05:00 +25°C° 0 mm 2 mps 666 mmHg 55%
    06:00 +25°C° 0 mm 2 mps 667 mmHg 57%
    07:00 +25°C° 0 mm 2 mps 667 mmHg 61%
    08:00 +28°C° 0 mm 2 mps 668 mmHg 52%
    09:00 +31°C° 0 mm 2 mps 668 mmHg 42%
    10:00 +35°C° 0 mm 2 mps 669 mmHg 33%
    11:00 +36°C° 0 mm 2 mps 669 mmHg 30%
    12:00 +37°C° 0 mm 2 mps 668 mmHg 26%
    13:00 +39°C° 0 mm 2 mps 668 mmHg 23%
    14:00 +37°C° 0 mm 2 mps 668 mmHg 25%
    15:00 +36°C° 0 mm 2 mps 667 mmHg 28%
    16:00 +34°C° 0 mm 2 mps 666 mmHg 31%
    17:00 +32°C° 0 mm 2 mps 667 mmHg 33%
    18:00 +31°C° 0 mm 1 mps 667 mmHg 34%
    19:00 +30°C° 0 mm 1 mps 667 mmHg 36%
    20:00 +29°C° 0 mm 1 mps 667 mmHg 38%
    21:00 +28°C° 0 mm 1 mps 667 mmHg 41%
    22:00 +27°C° 0 mm 1 mps 668 mmHg 43%
    23:00 +26°C° 0 mm 1 mps 667 mmHg 46%

    Tomorrow, 23 March, Saturday

    Time Temperature Precipitation Wind Pressure Humidity
    00:00 +26°C° 0 mm 1 mps 667 mmHg 49%
    01:00 +25°C° 0 mm 2 mps 667 mmHg 52%
    02:00 +25°C° 0.1 mm 1 mps 667 mmHg 55%
    03:00 +24°C° 0.1 mm 1 mps 666 mmHg 58%
    04:00 +24°C° 0.1 mm 1 mps 666 mmHg 61%
    05:00 +24°C° 0.3 mm 1 mps 666 mmHg 60%
    06:00 +24°C° 0.3 mm 1 mps 667 mmHg 60%
    07:00 +25°C° 0.3 mm 1 mps 667 mmHg 60%
    08:00 +28°C° 0 mm 1 mps 668 mmHg 51%
    09:00 +31°C° 0 mm 1 mps 669 mmHg 42%
    10:00 +35°C° 0 mm 2 mps 669 mmHg 33%
    11:00 +36°C° 0 mm 2 mps 669 mmHg 29%
    12:00 +38°C° 0 mm 2 mps 669 mmHg 25%
    13:00 +39°C° 0 mm 1 mps 668 mmHg 21%
    14:00 +39°C° 0 mm 2 mps 668 mmHg 21%
    15:00 +38°C° 0 mm 2 mps 667 mmHg 21%
    16:00 +38°C° 0 mm 2 mps 667 mmHg 21%
    17:00 +36°C° 0 mm 2 mps 667 mmHg 24%
    18:00 +34°C° 0 mm 2 mps 667 mmHg 26%
    19:00 +32°C° 0 mm 2 mps 666 mmHg 29%
    20:00 +31°C° 0 mm 2 mps 667 mmHg 31%
    21:00 +30°C° 0 mm 2 mps 667 mmHg 33%
    22:00 +29°C° 0 mm 2 mps 667 mmHg 35%
    23:00 +28°C° 0 mm 2 mps 667 mmHg 37%

    Day after tomorrow, 24 March, Sunday

    Time Temperature Precipitation Wind Pressure Humidity
    00:00 +27°C° 0 mm 2 mps 667 mmHg 39%
    01:00 +26°C° 0 mm 2 mps 667 mmHg 40%
    02:00 +26°C° 0 mm 2 mps 667 mmHg 45%
    03:00 +25°C° 0 mm 2 mps 666 mmHg 51%
    04:00 +24°C° 0 mm 2 mps 666 mmHg 56%
    05:00 +24°C° 0 mm 2 mps 666 mmHg 57%
    06:00 +24°C° 0 mm 2 mps 667 mmHg 57%
    07:00 +24°C° 0 mm 2 mps 667 mmHg 58%
    08:00 +27°C° 0 mm 2 mps 668 mmHg 51%
    09:00 +29°C° 0 mm 2 mps 669 mmHg 43%
    10:00 +31°C° 0 mm 3 mps 669 mmHg 36%
    11:00 +34°C° 0 mm 2 mps 669 mmHg 31%
    12:00 +36°C° 0 mm 2 mps 668 mmHg 25%
    13:00 +38°C° 0 mm 2 mps 668 mmHg 20%
    14:00 +36°C° 0 mm 1 mps 667 mmHg 22%
    15:00 +36°C° 0 mm 1 mps 666 mmHg 23%
    16:00 +33°C° 0 mm 0 mps 665 mmHg 24%
    17:00 +34°C° 0 mm 1 mps 665 mmHg 25%
    18:00 +32°C° 0 mm 1 mps 666 mmHg 26%
    19:00 +31°C° 0 mm 1 mps 666 mmHg 26%
    20:00 +31°C° 0 mm 1 mps 666 mmHg 28%
    21:00 +30°C° 0 mm 1 mps 667 mmHg 29%
    22:00 +30°C° 0 mm 1 mps 667 mmHg 30%
    23:00 +29°C° 0 mm 2 mps 667 mmHg 32%

    25 March, Monday

    Time Temperature Precipitation Wind Pressure Humidity
    00:00 +28°C° 0 mm 2 mps 667 mmHg 34%
    01:00 +27°C° 0 mm 3 mps 666 mmHg 36%
    02:00 +27°C° 0 mm 3 mps 666 mmHg 36%
    03:00 +26°C° 0 mm 2 mps 666 mmHg 37%
    04:00 +26°C° 0 mm 1 mps 666 mmHg 38%
    05:00 +26°C° 0 mm 1 mps 666 mmHg 39%
    06:00 +25°C° 0 mm 1 mps 666 mmHg 40%
    07:00 +25°C° 0 mm 1 mps 667 mmHg 41%
    08:00 +28°C° 0 mm 1 mps 667 mmHg 35%
    09:00 +32°C° 0 mm 2 mps 668 mmHg 29%
    10:00 +36°C° 0 mm 3 mps 669 mmHg 23%
    11:00 +37°C° 0 mm 3 mps 668 mmHg 21%
    12:00 +39°C° 0 mm 3 mps 668 mmHg 18%
    13:00 +40°C° 0 mm 3 mps 667 mmHg 16%
    14:00 +39°C° 0 mm 2 mps 666 mmHg 18%
    15:00 +38°C° 0 mm 2 mps 665 mmHg 20%
    16:00 +36°C° 0 mm 1 mps 665 mmHg 22%
    17:00 +34°C° 0 mm 1 mps 665 mmHg 23%
    18:00 +33°C° 0 mm 1 mps 665 mmHg 25%
    19:00 +32°C° 0 mm 2 mps 665 mmHg 26%
    20:00 +31°C° 0 mm 2 mps 665 mmHg 28%
    21:00 +31°C° 0 mm 2 mps 666 mmHg 30%
    22:00 +30°C° 0 mm 2 mps 666 mmHg 31%
    23:00 +29°C° 0 mm 2 mps 666 mmHg 34%

    26 March, Tuesday

    Time Temperature Precipitation Wind Pressure Humidity
    00:00 +28°C° 0 mm 3 mps 666 mmHg 36%
    01:00 +27°C° 0 mm 3 mps 666 mmHg 39%
    02:00 +27°C° 0 mm 3 mps 666 mmHg 41%
    03:00 +26°C° 0 mm 4 mps 666 mmHg 44%
    04:00 +26°C° 0 mm 4 mps 666 mmHg 46%
    05:00 +25°C° 0 mm 3 mps 666 mmHg 46%
    06:00 +25°C° 0 mm 3 mps 667 mmHg 47%
    07:00 +25°C° 0 mm 2 mps 667 mmHg 47%
    08:00 +27°C° 0.2 mm 2 mps 668 mmHg 44%
    09:00 +29°C° 0.2 mm 2 mps 668 mmHg 41%
    10:00 +30°C° 0.2 mm 2 mps 669 mmHg 39%
    11:00 +32°C° 0 mm 2 mps 668 mmHg 35%
    12:00 +34°C° 0 mm 2 mps 668 mmHg 31%
    13:00 +35°C° 0 mm 2 mps 667 mmHg 27%
    14:00 +35°C° 0 mm 1 mps 667 mmHg 26%
    15:00 +35°C° 0 mm 1 mps 667 mmHg 25%
    16:00 +34°C° 0 mm 0 mps 666 mmHg 24%
    17:00 +34°C° 0 mm 1 mps 667 mmHg 26%
    18:00 +33°C° 0 mm 1 mps 667 mmHg 28%
    19:00 +31°C° 0 mm 1 mps 667 mmHg 30%
    20:00 +30°C° 0 mm 1 mps 667 mmHg 34%
    21:00 +28°C° 0 mm 1 mps 667 mmHg 37%
    22:00 +27°C° 0 mm 1 mps 667 mmHg 40%
    23:00 +26°C° 0.1 mm 1 mps 667 mmHg 44%

    27 March, Wednesday

    Time Temperature Precipitation Wind Pressure Humidity
    00:00 +25°C° 0.1 mm 1 mps 667 mmHg 48%
    01:00 +24°C° 0.1 mm 1 mps 667 mmHg 51%
    02:00 +24°C° 0 mm 1 mps 667 mmHg 55%
    03:00 +24°C° 0 mm 1 mps 667 mmHg 58%
    04:00 +23°C° 0 mm 1 mps 666 mmHg 62%
    05:00 +23°C° 0 mm 1 mps 667 mmHg 62%
    06:00 +24°C° 0 mm 1 mps 668 mmHg 61%
    07:00 +24°C° 0 mm 1 mps 668 mmHg 61%
    08:00 +27°C° 0 mm 1 mps 669 mmHg 53%
    09:00 +30°C° 0 mm 1 mps 670 mmHg 45%
    10:00 +33°C° 0 mm 1 mps 671 mmHg 36%
    11:00 +35°C° 0 mm 1 mps 670 mmHg 32%
    12:00 +36°C° 0 mm 1 mps 670 mmHg 29%
    13:00 +39°C° 0 mm 1 mps 669 mmHg 25%
    14:00 +36°C° 0 mm 1 mps 669 mmHg 27%
    15:00 +36°C° 0 mm 2 mps 668 mmHg 29%
    16:00 +35°C° 0 mm 2 mps 668 mmHg 32%
    17:00 +32°C° 0 mm 2 mps 668 mmHg 35%
    18:00 +31°C° 0 mm 2 mps 668 mmHg 39%
    19:00 +29°C° 0 mm 2 mps 668 mmHg 43%
    20:00 +29°C° 0 mm 1 mps 668 mmHg 44%
    21:00 +28°C° 0 mm 1 mps 668 mmHg 45%
    22:00 +28°C° 0 mm 1 mps 669 mmHg 46%
    23:00 +27°C° 0 mm 1 mps 668 mmHg 47%
    Show more